Location: Marcé
(47.5801°N, 0.3280°W)
Time: 03:59:48
(UTC+01:00)

Vanguard 3 - Pass Details

Date: 03 December 2021
Orbit: 508 x 3260 km, 33.3° (Epoch: 19 January)

Event Time Altitude Azimuth Distance (km) Brightness Sun altitude
Exits shadow 02:22:42 18° 140° (SE) 5,487 11.2 -58.6°
Maximum altitude 02:23:39 18° 137° (SE) 5,480 11.2 -58.5°
Drops below altitude 10° 02:34:30 10° 102° (ESE) 5,957 11.7 -57.2°
Sets 02:40:52 0° 87° (E) 6,656 12.2 -56.3°
